DateTime,F1_A11,F1_S11,BsB_S11,BsG_S11,BsR_S11,BbsB_S11,BbsG_S11,BbsR_S11,BaB_A11,BaG_A11,BaR_A11,T_S11,U_S11,P_S11,T1_A11
2016-12-10T00:00:00Z,0000380,21000600,,,,,,,,,,27.8,00.0,0641.7,34.8
2016-12-10T00:01:00Z,0000380,21000600,,,,,,,,,,27.8,00.0,0641.7,34.8
2016-12-10T00:02:00Z,0000380,21000600,,,,,,,,,,27.8,00.0,0641.7,34.8
2016-12-10T00:03:00Z,0000380,61000600,,,,,,,,,,27.8,00.0,0641.7,34.8
2016-12-10T00:04:00Z,0000380,41000600,-000.09,0000.41,0000.19,0000.10,-000.08,-000.17,-000.08,0000.11,-000.01,27.8,00.0,0642.5,34.8
2016-12-10T00:05:00Z,0000380,01000600,0000.85,-000.30,0000.57,0000.22,0000.07,0000.71,0000.15,0000.20,0000.24,27.8,00.0,0642.6,34.8
2016-12-10T00:06:00Z,0000380,01000600,0001.09,0000.36,0000.12,0000.50,0000.25,-000.02,0000.01,-000.16,-000.00,27.8,00.0,0642.6,34.8
2016-12-10T00:07:00Z,0000380,01000600,0000.34,-000.45,-000.24,-000.30,-000.35,0000.20,-000.02,0000.05,-000.17,27.8,00.0,0642.6,34.8
2016-12-10T00:08:00Z,0000380,01000600,0000.63,-000.20,-000.48,0000.15,-000.15,0000.01,0000.03,0000.26,0000.28,27.8,00.0,0642.6,34.8
2016-12-10T00:09:00Z,0000380,01000600,-001.13,-000.23,-000.20,0000.03,-000.25,0000.22,0000.19,-000.10,0000.12,27.8,00.0,0642.6,34.8
2016-12-10T00:10:00Z,0000380,01000600,0000.30,-000.14,-000.32,-000.14,0000.25,-000.14,0000.02,0000.10,-000.22,27.9,00.0,0642.6,34.8
2016-12-10T00:11:00Z,0000380,01000600,0000.90,0000.22,-000.05,-000.03,0000.20,-000.06,0000.16,-000.08,0000.09,27.8,00.0,0642.6,34.8
2016-12-10T00:12:00Z,0000380,01000600,-000.46,-000.58,0000.13,-000.30,0000.05,-000.08,-000.14,0000.18,-000.12,27.8,00.0,0642.6,34.8
2016-12-10T00:13:00Z,0000380,01000600,0000.56,0000.14,0000.31,-000.17,0000.48,0000.25,0000.23,-000.00,0000.16,27.8,00.0,0642.6,34.8
2016-12-10T00:14:00Z,0000380,01000600,0001.39,-000.39,0000.23,-000.04,0000.09,-000.14,-000.24,-000.07,-000.25,27.8,00.0,0642.6,34.8
2016-12-10T00:15:00Z,0000380,01000600,0000.50,0000.91,-000.03,-000.09,-000.10,0000.34,0000.11,-000.02,0000.06,27.9,00.0,0642.6,34.8
2016-12-10T00:16:00Z,0000380,01000600,-000.01,0000.01,0000.08,-000.32,-000.06,0000.41,0000.03,0000.17,0000.06,27.9,00.0,0642.6,34.8
2016-12-10T00:17:00Z,0000380,01000600,0000.35,-000.39,-000.06,-001.11,-000.03,0000.24,-000.01,-000.11,0000.29,27.9,00.0,0642.6,34.8
2016-12-10T00:18:00Z,0000380,01000600,0000.02,0000.06,0000.19,-000.27,0000.12,-000.18,0000.11,0000.08,-000.21,27.8,00.0,0642.6,34.8
2016-12-10T00:19:00Z,0000380,01000600,-000.77,0000.44,-000.01,-000.31,-000.07,0000.30,-000.10,0000.04,-000.06,27.8,00.0,0642.6,34.8
2016-12-10T00:20:00Z,0000380,01000600,0000.36,0000.23,-000.05,0000.30,0000.26,-000.37,0000.10,0000.18,0000.15,27.9,00.0,0642.7,34.8
2016-12-10T00:21:00Z,0000380,01000600,0001.16,0000.26,-000.33,0000.47,-000.41,0000.17,-000.07,-000.07,-000.10,27.8,00.0,0642.6,34.8
2016-12-10T00:22:00Z,0000380,01000600,0000.19,-000.12,0000.04,-000.16,-000.05,0000.48,0000.12,-000.04,-000.08,27.8,00.0,0642.6,34.8
2016-12-10T00:23:00Z,0000380,01000600,0000.36,-000.08,0000.78,0000.19,-000.27,0000.15,0000.11,-000.05,0000.08,27.8,00.0,0642.6,34.8
2016-12-10T00:24:00Z,0000380,01000600,0000.57,0000.08,0000.29,0000.17,-000.08,0000.40,0000.04,0000.10,0000.13,27.9,00.0,0642.6,34.8
2016-12-10T00:25:00Z,0000380,01000600,0000.70,-000.81,0000.62,0000.10,-000.24,0000.58,0000.22,-000.02,-000.18,27.8,00.0,0642.6,34.8
2016-12-10T00:26:00Z,0000380,01000600,0000.04,0000.69,-000.03,0000.20,0000.06,0000.14,-000.09,0000.02,0000.20,27.9,00.0,0642.6,34.8
2016-12-10T00:27:00Z,0000380,01000600,-000.14,0000.13,0000.87,0000.07,-000.15,-000.27,-000.08,0000.04,-000.14,27.9,00.0,0642.6,34.8
2016-12-10T00:28:00Z,0000380,01000600,-000.63,0000.62,0000.23,-000.40,0000.05,0000.42,0000.01,0000.13,0000.15,27.9,00.0,0642.6,34.8
2016-12-10T00:29:00Z,0000380,01000600,0000.44,0000.66,0000.46,-000.18,0000.15,0000.06,0000.06,-000.08,0000.12,27.9,00.0,0642.6,34.8
2016-12-10T00:30:00Z,0000380,01000600,-000.37,-000.19,-000.13,-000.39,0000.01,-000.04,-000.08,0000.14,-000.33,27.9,00.0,0642.6,34.8
2016-12-10T00:31:00Z,0000380,01000600,0000.85,0000.04,-000.23,-000.06,-000.13,0000.03,0000.09,0000.07,0000.34,27.9,00.0,0642.6,34.8
2016-12-10T00:32:00Z,0000380,01000600,0000.27,0000.15,0000.40,0000.03,-000.23,0000.06,0000.09,-000.06,-000.18,27.9,00.0,0642.5,34.8
2016-12-10T00:33:00Z,0000380,01000600,0000.45,-000.39,0000.28,0000.03,-000.38,0000.18,0000.00,0000.06,0000.29,27.9,00.0,0642.5,34.8
2016-12-10T00:34:00Z,0000380,01000600,0000.11,-000.08,-000.27,-000.62,-000.15,0000.20,0000.12,-000.04,-000.05,27.9,00.0,0642.5,34.8
2016-12-10T00:35:00Z,0000380,01000600,-000.48,0000.11,0000.44,-000.26,-000.08,0000.23,-000.03,-000.03,-000.11,27.9,00.0,0642.5,34.8
2016-12-10T00:36:00Z,0000380,01000600,-000.92,0000.19,0000.33,-000.62,-000.34,0000.30,0000.22,0000.21,-000.02,27.9,00.0,0642.7,34.8
2016-12-10T00:37:00Z,0000380,01000600,0000.60,-000.18,-000.39,-000.57,0000.20,-000.00,0000.05,-000.01,0000.19,27.9,00.0,0642.7,34.8
2016-12-10T00:38:00Z,0000380,01000600,0000.22,0000.10,0000.21,0000.18,-000.31,-000.01,0000.14,-000.03,0000.11,27.9,00.0,0642.7,34.8
2016-12-10T00:39:00Z,0000380,01000600,-000.16,0000.50,-000.06,-000.23,-000.30,0000.82,-000.17,0000.08,-000.38,27.9,00.0,0642.7,34.8
2016-12-10T00:40:00Z,0000380,01000600,0000.17,0000.05,0000.74,-000.15,0000.30,0000.18,-000.11,-000.17,-000.02,27.9,00.0,0642.7,34.8
2016-12-10T00:41:00Z,0000380,01000600,-000.39,0000.36,0000.22,-000.53,-000.08,-000.19,0000.06,0000.07,0000.17,27.9,00.0,0642.7,34.8
2016-12-10T00:42:00Z,0000380,01000600,0000.79,-000.16,0000.50,0000.16,0000.18,0000.16,-000.04,0000.07,0000.21,27.9,00.0,0642.6,34.8
2016-12-10T00:43:00Z,0000380,01000600,0000.56,0000.00,0000.06,0000.38,0000.17,0000.07,0000.16,0000.05,-000.05,27.9,00.0,0642.7,34.8
2016-12-10T00:44:00Z,0000380,01000600,0001.08,0000.32,-000.18,0000.01,-000.03,-000.14,0000.01,-000.09,-000.02,27.9,00.0,0642.7,34.8
2016-12-10T00:45:00Z,0000380,01000600,-000.52,-000.50,0000.35,0000.38,-000.29,0000.23,-000.09,0000.15,-000.19,27.9,00.0,0642.7,34.8
2016-12-10T00:46:00Z,0000380,01000600,0000.44,0000.18,0000.09,-000.12,0000.45,-000.10,0000.03,-000.09,0000.11,28.0,00.0,0642.8,34.8
2016-12-10T00:47:00Z,0000380,01000600,0000.29,-000.19,0000.40,-000.01,-000.15,0000.01,0000.12,0000.02,0000.27,27.9,00.0,0642.8,34.8
2016-12-10T00:48:00Z,0000380,01000600,0000.30,0000.01,0000.03,-000.07,-000.07,-000.16,-000.05,0000.13,-000.36,28.0,00.0,0642.8,34.8
2016-12-10T00:49:00Z,0000380,01000600,0000.07,0000.09,0000.16,-000.34,0000.20,-000.09,-000.07,-000.00,0000.03,28.0,00.0,0642.8,34.8
2016-12-10T00:50:00Z,0000380,01000600,0000.25,0000.65,0000.41,-000.51,0000.10,0000.16,0000.17,-000.11,0000.10,27.9,00.0,0642.8,34.8
2016-12-10T00:51:00Z,0000380,01000600,-001.57,-000.78,0000.21,-000.29,-000.34,-000.28,-000.16,0000.05,0000.25,27.9,00.0,0642.8,34.8
2016-12-10T00:52:00Z,0000380,01000600,0000.25,0000.05,-000.40,-000.31,-000.01,0000.04,0000.09,-000.02,-000.38,27.9,00.0,0642.8,34.8
2016-12-10T00:53:00Z,0000380,01000600,0000.56,-000.27,0000.33,-000.16,0000.19,0000.13,-000.02,0000.13,0000.27,27.9,00.0,0642.8,34.8
2016-12-10T00:54:00Z,0000380,01000600,-000.02,-000.31,0000.05,-000.04,0000.07,-000.20,0000.15,0000.12,-000.11,27.9,00.0,0642.8,34.8
2016-12-10T00:55:00Z,0000380,01000600,-000.24,0000.64,0000.27,-000.33,-000.02,0000.62,-000.10,-000.10,-000.02,27.9,00.0,0642.8,34.8
2016-12-10T00:56:00Z,0000380,01000600,0000.90,0000.41,0000.56,0000.07,-000.06,0000.35,0000.23,-000.10,-000.10,27.9,00.0,0642.8,34.7
2016-12-10T00:57:00Z,0000380,41000600,,,,,,,,,,28.0,00.0,0642.7,34.7
2016-12-10T00:58:00Z,0000380,61000600,,,,,,,,,,27.9,00.0,0641.9,34.7
2016-12-10T00:59:00Z,0000380,21000600,,,,,,,,,,27.9,00.0,0641.9,34.7
2016-12-10T01:00:00Z,0000380,21000600,,,,,,,,,,27.9,00.0,0641.9,34.7
2016-12-10T01:01:00Z,0000380,21000600,,,,,,,,,,27.9,00.0,0641.9,34.8
2016-12-10T01:02:00Z,0000380,21000600,,,,,,,,,,27.9,00.0,0641.9,34.8
2016-12-10T01:03:00Z,0000380,61000600,,,,,,,,,,27.9,00.0,0641.9,34.8
2016-12-10T01:04:00Z,0000380,41000600,-000.19,0000.34,0000.13,0000.55,-000.10,0000.16,0000.44,0000.14,-000.13,27.9,00.0,0642.8,34.7
2016-12-10T01:05:00Z,0000380,01000600,-000.11,-000.08,0000.06,-000.12,0000.02,0000.03,-000.15,-000.14,0000.01,27.9,00.0,0642.9,34.8
2016-12-10T01:06:00Z,0000380,01000600,-000.57,0000.56,0000.05,-000.59,-000.12,0000.15,0000.19,0000.03,-000.14,27.9,00.0,0642.9,34.8
2016-12-10T01:07:00Z,0000380,01000600,0000.75,-000.28,-000.40,-000.18,0000.20,0000.09,-000.09,-000.12,0000.05,27.9,00.0,0642.9,34.7
2016-12-10T01:08:00Z,0000380,01000600,-000.27,0000.41,0000.16,0000.50,-000.11,-000.30,0000.14,0000.13,0000.01,27.9,00.0,0642.9,34.8
2016-12-10T01:09:00Z,0000380,01000600,0001.35,0000.29,0000.71,-000.34,-000.20,0000.11,-000.04,0000.04,0000.02,27.9,00.0,0642.9,34.8
2016-12-10T01:10:00Z,0000380,01000600,-001.16,0000.73,0000.12,-000.20,0000.43,-000.24,0000.08,0000.05,-000.08,27.9,00.0,0642.9,34.8
2016-12-10T01:11:00Z,0000380,01000600,0000.14,0000.61,0000.29,0000.64,0000.28,-000.34,-000.03,-000.02,0000.12,27.9,00.0,0642.9,34.7
2016-12-10T01:12:00Z,0000380,01000600,0000.77,-000.11,0000.37,0000.07,0000.20,-000.30,-000.04,-000.01,0000.10,27.9,00.0,0642.9,34.7
2016-12-10T01:13:00Z,0000380,01000600,-000.12,-000.04,0000.26,0000.31,-000.11,0000.51,0000.14,0000.00,-000.12,27.9,00.0,0642.9,34.7
2016-12-10T01:14:00Z,0000380,01000600,0000.53,-000.20,0000.46,0000.52,0000.44,0000.52,-000.18,0000.18,-000.04,27.9,00.0,0642.9,34.7
2016-12-10T01:15:00Z,0000380,01000600,0000.82,0000.69,0000.30,0000.49,-000.35,-000.02,0000.13,-000.15,0000.02,27.9,00.0,0642.9,34.7
2016-12-10T01:16:00Z,0000380,01000600,-000.69,-000.26,-000.27,0000.34,0000.31,-000.03,0000.10,0000.22,0000.18,27.9,00.0,0642.9,34.7
2016-12-10T01:17:00Z,0000380,01000600,-000.34,-000.28,0000.25,-000.10,0000.06,0000.51,-000.11,-000.03,-000.07,27.9,00.0,0642.9,34.7
2016-12-10T01:18:00Z,0000380,01000600,-001.08,-000.14,0000.33,-000.39,0000.21,0000.08,0000.20,0000.00,-000.11,27.9,00.0,0642.9,34.7
2016-12-10T01:19:00Z,0000380,01000600,-000.58,0000.54,-000.65,-000.28,0000.02,0000.08,-000.12,-000.02,0000.05,27.8,00.0,0643.0,34.7
2016-12-10T01:20:00Z,0000380,01000600,0000.32,0000.13,-000.39,-000.22,0000.03,0000.03,0000.24,0000.14,0000.17,27.8,00.0,0642.9,34.7
2016-12-10T01:21:00Z,0000380,01000600,-000.32,0000.05,0000.10,0000.46,0000.15,0000.08,0000.15,-000.09,-000.03,27.8,00.0,0642.9,34.7
2016-12-10T01:22:00Z,0000380,01000600,0000.83,-000.77,0000.35,-000.08,0000.14,0000.20,-000.15,0000.10,0000.24,27.8,00.0,0642.9,34.7
2016-12-10T01:23:00Z,0000380,01000600,0000.14,0000.13,0000.01,0000.66,0000.19,0000.31,-000.02,-000.01,-000.21,27.8,00.0,0642.9,34.7
2016-12-10T01:24:00Z,0000380,01000600,-000.51,-000.25,0000.19,0000.69,0000.53,0000.20,0000.08,0000.04,-000.09,27.8,00.0,0642.9,34.7
2016-12-10T01:25:00Z,0000380,01000600,-000.39,0000.28,-000.27,0000.15,0000.19,0000.33,0000.24,0000.14,0000.02,27.8,00.0,0642.9,34.7
2016-12-10T01:26:00Z,0000380,01000600,-000.61,0000.26,-000.44,-000.19,0000.33,-000.17,-000.29,-000.01,-000.07,27.8,00.0,0642.9,34.7
2016-12-10T01:27:00Z,0000380,01000600,-001.01,-000.34,-000.19,-000.13,-000.06,-000.18,0000.18,-000.09,0000.32,27.8,00.0,0642.9,34.7
2016-12-10T01:28:00Z,0000380,01000600,0000.25,-000.82,0000.22,-000.50,-000.13,0000.07,0000.14,0000.14,0000.01,27.8,00.0,0642.9,34.7
2016-12-10T01:29:00Z,0000380,01000600,-000.10,0000.06,0000.01,-000.35,0000.31,0000.18,0000.01,-000.16,-000.12,27.8,00.0,0642.9,34.7
2016-12-10T01:30:00Z,0000380,01000600,-000.20,-000.46,0000.21,0000.35,0000.52,-000.41,0000.16,0000.22,0000.03,27.7,00.0,0642.9,34.7
2016-12-10T01:31:00Z,0000380,01000600,-000.83,0001.23,0000.45,-000.08,0000.21,-000.22,-000.08,-000.12,-000.37,27.7,00.0,0642.8,34.7
2016-12-10T01:32:00Z,0000380,01000600,-000.48,-000.51,-000.17,-000.11,0000.36,0000.21,0000.03,0000.13,0000.44,27.7,00.0,0642.9,34.7
2016-12-10T01:33:00Z,0000380,01000600,0000.12,-000.24,0000.02,0000.19,0000.50,0000.15,0000.08,0000.05,0000.28,27.7,00.0,0642.9,34.7
2016-12-10T01:34:00Z,0000380,01000600,0000.46,0000.31,0000.11,-000.40,0000.29,-000.06,-000.12,0000.06,-000.12,27.7,00.0,0642.9,34.7
2016-12-10T01:35:00Z,0000380,01000600,0000.73,-000.20,0000.45,0000.17,-000.14,0000.37,0000.22,0000.03,0000.04,27.7,00.0,0642.9,34.7
2016-12-10T01:36:00Z,0000380,01000600,0000.09,0000.52,0000.20,0000.08,0000.33,0000.20,0000.08,-000.10,-000.03,27.7,00.0,0642.9,34.7
2016-12-10T01:37:00Z,0000380,01000600,0000.23,0000.30,0000.26,-000.21,0000.00,0000.35,-000.24,0000.07,-000.18,27.7,00.0,0642.9,34.7
2016-12-10T01:38:00Z,0000380,01000600,0000.57,-000.06,0000.57,0000.77,-000.07,0000.33,0000.16,0000.05,0000.15,27.7,00.0,0642.9,34.8
2016-12-10T01:39:00Z,0000380,01000600,-000.48,-000.39,0000.11,0000.08,-000.42,-000.31,0000.09,-000.08,-000.02,27.7,00.0,0642.8,34.7
2016-12-10T01:40:00Z,0000380,01000600,-000.32,-000.05,0000.48,0000.11,0000.24,0000.47,0000.16,0000.11,0000.17,27.7,00.0,0642.8,34.7
2016-12-10T01:41:00Z,0000380,01000600,0000.10,0000.31,-000.55,0000.17,0000.62,0000.05,0000.02,-000.05,0000.02,27.7,00.0,0642.8,34.7
2016-12-10T01:42:00Z,0000380,01000600,0000.06,-000.09,-000.16,0000.08,0000.05,-000.06,-000.04,0000.28,-000.46,27.7,00.0,0642.9,34.7
2016-12-10T01:43:00Z,0000380,01000600,-000.34,-000.03,0000.17,0001.08,-000.12,0000.11,0000.08,-000.10,0000.15,27.7,00.0,0642.9,34.8
2016-12-10T01:44:00Z,0000380,01000600,0000.37,-000.07,-000.34,0000.23,-000.30,0000.26,-000.04,0000.08,0000.29,27.7,00.0,0642.9,34.8
2016-12-10T01:45:00Z,0000380,01000600,0000.48,0000.04,0000.10,-000.02,-000.25,0000.31,0000.05,-000.01,-000.08,27.7,00.0,0642.9,34.8
2016-12-10T01:46:00Z,0000380,01000600,-000.71,0000.47,0000.16,-000.54,0000.62,0000.18,-000.10,-000.07,-000.17,27.7,00.0,0642.9,34.8
2016-12-10T01:47:00Z,0000380,01000600,0000.16,0000.04,-000.17,0000.53,0000.22,0000.10,0000.22,0000.28,0000.37,27.7,00.0,0642.9,34.8
2016-12-10T01:48:00Z,0000380,01000600,-000.84,0000.24,0000.29,0000.01,0000.06,-000.27,0000.08,-000.10,-000.31,27.7,00.0,0643.0,34.8
2016-12-10T01:49:00Z,0000380,01000600,0000.43,0000.20,0000.23,0000.10,0000.54,0000.10,0000.03,0000.06,0000.54,27.7,00.0,0643.0,34.7
2016-12-10T01:50:00Z,0000380,01000600,-001.13,-000.59,0000.41,0000.26,0000.64,0000.22,-000.12,-000.00,-000.24,27.7,00.0,0642.9,34.7
2016-12-10T01:51:00Z,0000380,01000600,0000.12,0000.11,0000.40,-000.41,0000.44,0000.34,0000.15,0000.11,-000.12,27.7,00.0,0642.9,34.7
2016-12-10T01:52:00Z,0000380,01000600,0000.20,0000.24,0000.20,0000.08,-000.11,-000.27,-000.06,0000.04,0000.17,27.7,00.0,0642.9,34.8
2016-12-10T01:53:00Z,0000380,01000600,0000.35,-000.07,0000.21,0000.41,0000.49,-000.03,0000.21,0000.15,0000.05,27.7,00.0,0642.9,34.7
2016-12-10T01:54:00Z,0000380,01000600,-000.05,-000.32,0000.52,-000.52,0000.28,0000.12,-000.06,-000.01,-000.10,27.7,00.0,0642.8,34.7
2016-12-10T01:55:00Z,0000380,01000600,-000.32,0000.54,0000.26,-000.25,0000.38,0000.27,0000.34,0000.08,0000.30,27.7,00.0,0642.8,34.7
2016-12-10T01:56:00Z,0000380,01000600,-000.17,0000.29,-000.15,-000.32,0000.23,-000.01,-000.23,-000.13,-000.33,27.7,00.0,0642.9,34.7
2016-12-10T01:57:00Z,0000380,41000600,,,,,,,,,,27.7,00.0,0643.1,34.7
2016-12-10T01:58:00Z,0000380,61000600,,,,,,,,,,27.6,00.0,0642.0,34.8
2016-12-10T01:59:00Z,0000380,21000600,,,,,,,,,,27.7,00.0,0642.0,34.7
2016-12-10T02:00:00Z,0000380,21000600,,,,,,,,,,27.7,00.0,0642.0,34.7
2016-12-10T02:01:00Z,0000380,21000600,,,,,,,,,,27.7,00.0,0642.0,34.7
2016-12-10T02:02:00Z,0000380,21000600,,,,,,,,,,27.7,00.0,0642.0,34.7
2016-12-10T02:03:00Z,0000380,61000600,,,,,,,,,,27.7,00.0,0642.0,34.7
2016-12-10T02:04:00Z,0000380,41000600,0000.31,-000.03,0000.01,0000.12,0000.03,-000.38,-000.13,-000.19,-000.04,27.7,00.0,0642.9,34.8
2016-12-10T02:05:00Z,0000380,01000600,-000.46,-000.11,-000.22,0000.06,0000.08,-000.05,0000.19,0000.09,0000.08,27.7,00.0,0642.9,34.8
2016-12-10T02:06:00Z,0000380,01000600,0000.74,0000.05,0000.44,0000.72,0000.18,-000.46,0000.08,0000.15,-000.14,27.7,00.0,0642.9,34.8
2016-12-10T02:07:00Z,0000380,01000600,0000.21,0000.16,0000.13,0000.15,0000.08,-000.02,-000.04,0000.12,0000.01,27.7,00.0,0642.9,34.7
2016-12-10T02:08:00Z,0000380,01000600,0000.33,0000.03,0000.10,0000.24,-000.07,0000.14,0000.14,-000.03,0000.09,27.7,00.0,0643.0,34.7
2016-12-10T02:09:00Z,0000380,01000600,0000.79,-000.35,-000.81,-000.09,0000.33,-000.11,-000.02,0000.07,0000.23,27.7,00.0,0642.9,34.8
2016-12-10T02:10:00Z,0000380,01000600,0000.20,0000.79,-000.34,-000.32,0000.36,0000.08,0000.15,0000.17,-000.20,27.7,00.0,0642.9,34.7
2016-12-10T02:11:00Z,0000380,01000600,0000.72,0000.17,0000.21,0000.84,0000.59,-000.33,0000.16,0000.02,0000.02,27.6,00.0,0642.9,34.7
2016-12-10T02:12:00Z,0000380,01000600,-000.07,0000.01,0000.20,-000.15,0000.44,-000.25,-000.07,-000.01,-000.05,27.7,00.0,0643.0,34.7
2016-12-10T02:13:00Z,0000380,01000600,-000.85,0000.60,0000.07,0000.19,0000.34,0000.11,0000.01,0000.10,0000.13,27.6,00.0,0643.0,34.7
2016-12-10T02:14:00Z,0000380,01000600,0000.77,-000.30,-000.41,0000.35,0000.10,0000.17,-000.12,-000.22,-000.05,27.7,00.0,0642.9,34.7
2016-12-10T02:15:00Z,0000380,01000600,0000.95,0000.22,0000.16,-000.02,-000.00,-000.26,0000.14,0000.09,0000.12,27.6,00.0,0643.0,34.7
2016-12-10T02:16:00Z,0000380,01000600,0000.96,0001.14,-000.19,0000.16,0000.39,-000.34,-000.09,0000.03,-000.03,27.6,00.0,0642.9,34.7
2016-12-10T02:17:00Z,0000380,01000600,-000.06,-000.12,-000.25,0000.19,0000.39,0000.25,-000.09,0000.10,0000.01,27.6,00.0,0642.9,34.7
2016-12-10T02:18:00Z,0000380,01000600,0000.35,-000.18,-000.14,0000.12,-000.19,-000.22,0000.29,-000.07,0000.13,27.6,00.0,0643.0,34.7
2016-12-10T02:19:00Z,0000380,01000600,0000.58,-000.10,0000.02,-000.51,0000.68,0000.30,-000.02,-000.15,-000.25,27.6,00.0,0642.9,34.7
2016-12-10T02:20:00Z,0000380,01000600,0000.51,0000.04,-000.11,-000.14,0000.21,-000.13,-000.02,0000.16,0000.04,27.6,00.0,0643.0,34.7
2016-12-10T02:21:00Z,0000380,01000600,0000.13,0000.06,-000.04,0000.03,0000.52,0000.10,0000.14,0000.16,0000.11,27.6,00.0,0643.0,34.7
2016-12-10T02:22:00Z,0000380,01000600,0000.80,0001.05,-000.69,0000.00,0000.66,-000.78,0000.02,-000.07,0000.13,27.6,00.0,0643.0,34.7
2016-12-10T02:23:00Z,0000380,01000600,-000.02,0000.47,-000.09,-000.06,0000.17,-000.40,-000.24,0000.08,-000.18,27.6,00.0,0643.0,34.7
2016-12-10T02:24:00Z,0000380,01000600,0000.34,-000.08,-000.13,0000.04,0000.46,0000.00,0000.05,-000.10,0000.26,27.6,00.0,0643.0,34.7
2016-12-10T02:25:00Z,0000380,01000600,0000.06,0000.49,-000.03,-000.48,0000.09,0000.21,0000.06,0000.21,-000.31,27.6,00.0,0643.1,34.7
2016-12-10T02:26:00Z,0000380,01000600,0001.09,-000.24,-000.47,0000.80,0000.38,0000.05,0000.04,-000.05,0000.18,27.6,00.0,0643.0,34.7
2016-12-10T02:27:00Z,0000380,01000600,-000.23,-000.40,-000.08,0000.33,0000.03,-000.10,0000.09,0000.11,0000.18,27.6,00.0,0643.1,34.7
2016-12-10T02:28:00Z,0000380,01000600,0000.12,-000.21,-000.33,-000.50,0000.18,-000.42,-000.11,-000.28,-000.26,27.6,00.0,0643.1,34.7
2016-12-10T02:29:00Z,0000380,01000600,-000.21,0000.10,0000.03,0000.25,0000.11,-000.37,0000.11,0000.26,-000.01,27.6,00.0,0643.1,34.7
2016-12-10T02:30:00Z,0000380,01000600,0001.03,0000.57,0000.06,0000.87,-000.18,0000.10,0000.04,-000.09,0000.41,27.6,00.0,0643.1,34.7
2016-12-10T02:31:00Z,0000380,01000600,0000.26,-000.19,0000.02,-000.16,0000.30,0000.31,-000.01,0000.13,-000.31,27.6,00.0,0643.1,34.7
2016-12-10T02:32:00Z,0000380,01000600,0000.15,-000.01,0000.02,0000.43,0000.10,-000.33,0000.08,-000.23,-000.22,27.6,00.0,0643.1,34.7
2016-12-10T02:33:00Z,0000380,01000600,-000.40,0000.05,-000.44,0000.05,0000.15,-000.29,-000.16,0000.08,0000.27,27.6,00.0,0643.1,34.7
2016-12-10T02:34:00Z,0000380,01000600,-000.03,-000.02,-000.21,-000.29,0000.15,-000.42,0000.15,-000.07,0000.08,27.6,00.0,0643.1,34.7
2016-12-10T02:35:00Z,0000380,01000600,0001.05,-000.04,-000.51,0000.03,0000.05,0000.03,0000.06,0000.22,0000.00,27.6,00.0,0643.2,34.7
2016-12-10T02:36:00Z,0000380,01000600,0000.36,0000.18,-000.16,-000.06,-000.02,-000.08,-000.12,-000.14,-000.04,27.6,00.0,0643.2,34.7
2016-12-10T02:37:00Z,0000380,01000600,-000.34,0000.05,-000.55,-000.29,0000.02,-000.41,0000.20,-000.02,0000.17,27.6,00.0,0643.2,34.7
2016-12-10T02:38:00Z,0000380,01000600,0000.23,0001.17,-000.08,-000.04,0000.48,-000.14,0000.06,-000.01,0000.08,27.6,00.0,0643.2,34.7
2016-12-10T02:39:00Z,0000380,01000600,0000.53,0000.18,0000.60,-000.08,-000.10,-000.07,-000.07,-000.02,-000.02,27.6,00.0,0643.2,34.7
2016-12-10T02:40:00Z,0000380,01000600,0000.42,0000.21,-000.26,0000.35,0000.33,-000.09,0000.08,0000.21,0000.00,27.6,00.0,0643.2,34.7
2016-12-10T02:41:00Z,0000380,01000600,0001.22,0000.56,-000.04,-000.26,0000.40,0000.08,-000.21,-000.08,-000.31,27.6,00.0,0643.2,34.7
2016-12-10T02:42:00Z,0000380,01000600,0000.12,-000.03,0000.38,0000.71,0000.26,0000.13,0000.12,0000.09,0000.09,27.6,00.0,0643.2,34.7
2016-12-10T02:43:00Z,0000380,01000600,0001.06,0000.31,-000.05,0000.18,0000.49,-000.25,-000.07,0000.09,0000.18,27.6,00.0,0643.3,34.7
2016-12-10T02:44:00Z,0000380,01000600,0001.19,0000.10,-000.36,-000.12,-000.01,0000.20,0000.11,-000.09,-000.08,27.6,00.0,0643.3,34.7
2016-12-10T02:45:00Z,0000380,01000600,-000.38,0000.09,0000.10,-000.40,-000.09,-000.40,-000.15,0000.01,-000.01,27.6,00.0,0643.3,34.7
2016-12-10T02:46:00Z,0000380,01000600,-000.67,0000.22,-000.07,0000.05,-000.01,-000.09,0000.02,-000.16,0000.20,27.6,00.0,0643.3,34.7
2016-12-10T02:47:00Z,0000380,01000600,0000.47,0000.27,-000.41,-000.29,0000.62,-000.25,0000.16,0000.10,-000.26,27.6,00.0,0643.3,34.7
2016-12-10T02:48:00Z,0000380,01000600,0000.72,0000.79,-000.43,-000.02,0000.54,-000.02,-000.07,0000.08,-000.00,27.6,00.0,0643.3,34.7
2016-12-10T02:49:00Z,0000380,01000600,0001.66,0000.14,-000.45,-000.16,0000.29,-000.11,-000.08,0000.02,0000.12,27.6,00.0,0643.3,34.7
2016-12-10T02:50:00Z,0000380,01000600,0000.78,-000.09,-000.01,0000.12,0000.15,-000.06,0000.16,0000.04,0000.15,27.6,00.0,0643.3,34.7
2016-12-10T02:51:00Z,0000380,01000600,0000.47,0000.61,-000.53,0000.52,0000.09,-000.55,-000.05,-000.16,-000.18,27.6,00.0,0643.3,34.7
2016-12-10T02:52:00Z,0000380,01000600,-000.09,0000.57,-000.56,0000.27,0000.20,-000.13,0000.07,0000.13,0000.08,27.6,00.0,0643.3,34.7
2016-12-10T02:53:00Z,0000380,01000600,-000.13,-000.30,0000.09,0000.41,-000.16,-000.10,-000.09,-000.06,0000.01,27.6,00.0,0643.4,34.7
2016-12-10T02:54:00Z,0000380,01000600,0000.87,0000.35,0000.33,0000.40,-000.12,0000.08,0000.10,0000.14,0000.29,27.6,00.0,0643.4,34.7
2016-12-10T02:55:00Z,0000380,01000600,0000.23,-000.00,-000.10,-000.03,-000.22,-000.04,-000.28,-000.11,-000.42,27.6,00.0,0643.3,34.7
2016-12-10T02:56:00Z,0000380,01000600,0000.19,0000.16,-000.01,0000.18,0000.29,-000.57,0000.15,0000.17,0000.08,27.6,00.0,0643.4,34.7
2016-12-10T02:57:00Z,0000380,41000600,,,,,,,,,,27.6,00.0,0643.4,34.7
2016-12-10T02:58:00Z,0000380,61000600,,,,,,,,,,27.6,00.0,0642.4,34.7
2016-12-10T02:59:00Z,0000380,21000600,,,,,,,,,,27.6,00.0,0642.4,34.7
2016-12-10T03:00:00Z,0000380,21000600,,,,,,,,,,27.6,00.0,0642.4,34.7
2016-12-10T03:01:00Z,0000380,21000600,,,,,,,,,,27.6,00.0,0642.4,34.7
2016-12-10T03:02:00Z,0000380,21000600,,,,,,,,,,27.6,00.0,0642.4,34.7
2016-12-10T03:03:00Z,0000380,61000600,,,,,,,,,,27.6,00.0,0642.4,34.7
2016-12-10T03:04:00Z,0000380,41000600,0000.18,0000.21,0000.13,0000.24,0000.03,-000.07,-000.03,-000.19,-000.01,27.6,00.0,0643.3,34.7
2016-12-10T03:05:00Z,0000380,01000600,-000.66,0000.08,-000.33,-000.40,0000.13,-000.10,-000.04,0000.10,0000.15,27.6,00.0,0643.4,34.7
2016-12-10T03:06:00Z,0000380,01000600,0000.67,0000.23,-000.13,0000.43,-000.30,0000.24,0000.10,-000.05,0000.15,27.6,00.0,0643.5,34.7
2016-12-10T03:07:00Z,0000380,01000600,0000.47,0000.30,-000.12,-000.31,0000.27,0000.01,-000.03,0000.06,-000.17,27.6,00.0,0643.5,34.7
2016-12-10T03:08:00Z,0000380,01000600,-000.63,0000.43,-000.48,0000.29,0000.37,-000.29,0000.11,-000.02,0000.02,27.6,00.0,0643.5,34.7
2016-12-10T03:09:00Z,0000380,01000600,-000.59,-000.15,0000.06,0000.20,0000.17,0000.08,0000.04,0000.02,0000.08,27.6,00.0,0643.5,34.7
2016-12-10T03:10:00Z,0000380,01000600,0000.23,0000.00,-000.26,0000.70,0000.08,-000.10,0000.01,0000.12,0000.01,27.6,00.0,0643.5,34.7
2016-12-10T03:11:00Z,0000380,01000600,0000.38,0000.19,-000.57,0000.04,0000.13,-000.07,0000.05,0000.01,-000.10,27.6,00.0,0643.4,34.7